Flag for U.S.A. Weather past 2 weeks in Thousand Oaks, California, U.S.A.

Now
58 °F

Overcast.


Feels Like: 57 °F
Forecast: 47 / 65 °F
Wind: 7 mph from East

Location: Camarillo Airport

Current Time: Dec 20, 2014 at 11:08:55 AM

Latest Report: Dec 20, 2014 at 9:55 AM


Visibility: 10 mi

Pressure: 30.21 "Hg

Humidity: 75%

Dew point: 50 °F

Location of Thousand OaksLocation

Historic Weather in Thousand Oaks — Graph

°F

Thousand Oaks temperature yesterday

Maximum temperature yesterday: 63 °F (at 11:55 AM)
Minimum temperature yesterday: 47 °F (at 12:55 AM)
Average temperature yesterday: 55 °F

Past Weeks' High & Low Weather Summary

 TemperatureHumidityPressure
High77 °F (Dec 8, 11:55 AM)93% (Dec 6, 1:55 AM)30.27 "Hg (Dec 6, 1:55 AM)
Low43 °F (Dec 13, 6:55 AM)36% (Dec 9, 11:55 AM)29.79 "Hg (Dec 12, 12:55 AM)
Average58 °F75%30.09 "Hg
* Reported Dec 5 9:55 AM — Dec 20 9:55 AM, Thousand Oaks, Weather by CustomWeather, © 2014

Note: Actual official high and low records may vary slightly from our data, if they occured in-between our weather recording intervals... More about our weather records

Advertising

Thousand Oaks weather history for previous 24 hours

 ConditionsComfort  
Time TempWeatherWind HumidityBarometerVisibility
9:55 AM
Dec 20
58 °FOvercast.7 mph75%30.21 "Hg10 mi
8:55 AM54 °FOvercast.No wind83%30.22 "Hg10 mi
7:55 AM53 °FOvercast.3 mph80%30.19 "Hg10 mi
6:55 AM52 °FOvercast.No wind86%30.19 "Hg10 mi
5:55 AM52 °FOvercast.7 mph83%30.17 "Hg10 mi
4:55 AM49 °FPartly cloudy.No wind90%30.16 "Hg9 mi
3:55 AM48 °FPassing clouds.No wind93%30.16 "Hg8 mi
2:55 AM51 °FClear.6 mph86%30.18 "Hg10 mi
1:55 AM49 °FClear.No wind90%30.19 "Hg8 mi
12:55 AM51 °FClear.8 mph89%30.18 "Hg8 mi
11:55 PM
Dec 19
51 °FClear.No wind86%30.22 "Hg9 mi
10:55 PM51 °FClear.3 mph89%30.20 "Hg8 mi
9:55 PM53 °FClear.6 mph83%30.20 "Hg9 mi
8:55 PM54 °FClear.3 mph86%30.22 "Hg8 mi
7:55 PM54 °FClear.5 mph86%30.20 "Hg9 mi
6:55 PM56 °FClear.No wind84%30.21 "Hg10 mi
5:55 PM58 °FClear.No wind81%30.20 "Hg10 mi
4:55 PM59 °FClear.6 mph78%30.19 "Hg10 mi
3:55 PM62 °FSunny.No wind60%30.18 "Hg10 mi
2:55 PM63 °FSunny.3 mph56%30.18 "Hg10 mi
1:55 PM62 °FSunny.No wind58%30.18 "Hg10 mi
12:55 PM62 °FSunny.6 mph62%30.22 "Hg10 mi
11:55 AM63 °FSunny.5 mph50%30.25 "Hg10 mi
Weather by CustomWeather, © 2014

See weather overviewHow to use our weather pages